{"data":{"norad_id":57671,"intl_designator":"2023-124J","name":"STARLINK-30296","alt_names":[],"object_type":"PAYLOAD","status":"ACTIVE","operator":null,"country":"US","launch_date":"2023-08-22","launch_site_code":"AFWTR","launch_vehicle":null,"mission":null,"orbit_class":"UNKNOWN","rcs_meters":null,"size_class":null,"mass_kg":null,"dimensions":null,"purposes":["comms"],"wikipedia_slug":null,"has_3d_model":false,"image_url":null,"decayed_at":null,"tle_current":{"epoch":"2026-05-24T21:48:40.802976Z","epoch_age_seconds":86145,"freshness":"FRESH","line1":"1 57671U 23124J   26144.90880559 -.00000457  00000+0 -33026-5 0  9995","line2":"2 57671  53.1606 212.9828 0001162  95.9131 264.2002 15.30188541155237","mean_motion":15.30188541,"eccentricity":0.0001162,"inclination_deg":53.1606,"raan_deg":212.9828,"arg_perigee_deg":95.9131,"mean_anomaly_deg":264.2002,"bstar":-3.3026e-6,"rev_number":15523,"period_min":94.106050425586,"perigee_km":474.45292065512,"apogee_km":476.04564762756,"semimajor_km":6853.3862841413,"source":"CELESTRAK","updated_at":"2026-05-25T13:38:18.368277Z"}}}